Location: Unspecified
(52.4292°N, 19.3359°E)
Time: 21:46:31
(UTC+02:00)

A-11 Canister half - Pass Details

Date: 19 May 2024
Orbit: 1524 x 1683 km, 47.3° (Epoch: 19 June)

Event Time Altitude Azimuth Distance (km) Brightness Sun altitude
Rises 02:16:46 0° 268° (W) 4,754 11.3 -14.7°
Reaches altitude 10° 02:19:50 10° 266° (W) 3,790 10.8 -14.5°
Maximum altitude 02:29:19 65° 188° (S) 1,762 9.1 -13.9°
Drops below altitude 10° 02:39:09 10° 109° (ESE) 3,908 11.2 -13.2°
Sets 02:42:21 0° 107° (ESE) 4,910 11.8 -12.9°
